Flag for Macedonia, Republic of Weather past 2 weeks in Skopje, Macedonia, Republic of

Now
37 °F

Clear.


Feels Like: 37 °F
Forecast: 34 / 52 °F
Wind: 2 mph from East

Location: Skopje-Petrovec

Current Time: Jan 29, 2015 at 8:18:05 PM

Latest Report: Jan 29, 2015 at 8:00 PM


Visibility: 10 mi

Pressure: 29.62 "Hg

Humidity: 87%

Dew point: 34 °F

Location of SkopjeLocation

Historic Weather in Skopje — Graph

°F

Skopje temperature yesterday

Maximum temperature yesterday: 41 °F (at 1:30 PM)
Minimum temperature yesterday: 36 °F (at 10:00 PM)
Average temperature yesterday: 38 °F

Past Weeks' High & Low Weather Summary

 TemperatureHumidityPressure
High55 °F (Jan 21, 2:00 PM)100% (Jan 15, 2:30 AM)30.33 "Hg (Jan 15, 2:30 AM)
Low19 °F (Jan 15, 2:30 AM)54% (Jan 15, 3:00 PM)29.65 "Hg (Jan 29, 3:30 PM)
Average38 °F86%30.01 "Hg
* Reported Jan 14 7:00 PM — Jan 29 7:00 PM, Skopje, Weather by CustomWeather, © 2014

Note: Actual official high and low records may vary slightly from our data, if they occured in-between our weather recording intervals... More about our weather records

Advertising

Skopje weather history for previous 24 hours

 ConditionsComfort  
Time TempWeatherWind HumidityBarometerVisibility
7:00 PM
Jan 29
37 °FClear.1 mph87%29.65 "Hg10 mi
6:30 PM39 °FClear.2 mph87%29.65 "Hg10 mi
6:00 PM41 °FClear.No wind81%29.65 "Hg10 mi
5:30 PM43 °FClear.7 mph76%29.65 "Hg10 mi
5:00 PM43 °FClear.9 mph76%29.65 "Hg10 mi
4:30 PM45 °FSunny.3 mph71%29.65 "Hg10 mi
4:00 PM46 °FSunny.5 mph66%29.65 "Hg10 mi
3:30 PM46 °FSunny.7 mph66%29.65 "Hg10 mi
3:00 PM46 °FPassing clouds.7 mph66%29.68 "HgN/A
2:30 PM46 °FSunny.9 mph66%29.68 "Hg10 mi
2:00 PM46 °FPassing clouds.7 mph66%29.68 "HgN/A
1:30 PM46 °FPassing clouds.3 mph62%29.71 "HgN/A
1:00 PM46 °FPassing clouds.3 mph62%29.71 "HgN/A
12:30 PM45 °FScattered clouds.3 mph66%29.74 "HgN/A
12:00 PM43 °FScattered clouds.3 mph66%29.77 "HgN/A
11:30 AM43 °FScattered clouds.No wind66%29.80 "HgN/A
11:00 AM43 °FScattered clouds.No wind66%29.80 "HgN/A
10:30 AM39 °FScattered clouds.1 mph75%29.80 "HgN/A
10:00 AM39 °FScattered clouds.No wind75%29.80 "HgN/A
9:30 AM36 °FBroken clouds.No wind87%29.83 "HgN/A
9:00 AM36 °FBroken clouds.No wind81%29.83 "HgN/A
8:30 AM36 °FPartly sunny.1 mph81%29.83 "HgN/A
8:00 AM34 °FBroken clouds.1 mph87%29.83 "HgN/A
7:30 AM34 °FBroken clouds.2 mph87%29.83 "HgN/A
7:00 AM32 °FMore clouds than sun.No wind93%29.83 "HgN/A
6:30 AM34 °FPassing clouds.No wind87%29.83 "HgN/A
6:00 AM34 °FPassing clouds.No wind87%29.83 "HgN/A
5:00 AM36 °FMostly cloudy.No wind81%29.83 "HgN/A
4:00 AM36 °FMostly cloudy.3 mph81%29.89 "HgN/A
3:30 AM36 °FMostly cloudy.3 mph81%29.89 "HgN/A
2:30 AM36 °FMostly cloudy.3 mph81%29.89 "HgN/A
2:00 AM36 °FMostly cloudy.7 mph81%29.89 "HgN/A
1:30 AM36 °FMostly cloudy.7 mph81%29.89 "HgN/A
1:00 AM36 °FMostly cloudy.3 mph81%29.89 "HgN/A
12:30 AM36 °FMostly cloudy.7 mph81%29.89 "HgN/A
12:00 AM36 °FMostly cloudy.7 mph81%29.89 "HgN/A
11:30 PM
Jan 28
36 °FMostly cloudy.7 mph81%29.92 "HgN/A
11:00 PM36 °FMostly cloudy.7 mph81%29.92 "HgN/A
10:30 PM36 °FMostly cloudy.6 mph81%29.92 "HgN/A
10:00 PM36 °FMostly cloudy.8 mph81%29.92 "HgN/A
9:30 PM37 °FMostly cloudy.5 mph75%29.92 "HgN/A
9:00 PM37 °FMostly cloudy.5 mph75%29.92 "HgN/A
8:30 PM37 °FMostly cloudy.6 mph75%29.92 "HgN/A
8:00 PM37 °FMostly cloudy.6 mph75%29.92 "HgN/A
Weather by CustomWeather, © 2014

See weather overviewHow to use our weather pages